Regional Weather Roundup
Issued by NWS

Home | Current Version | Previous Version | Graphics & Text | Print | Product List | Glossary On
Versions: 1 2 3 4 5 6 7 8 9 10 11 12 13 14 15 16 17 18 19 20 21 22 23 24 25 26 27 28 29 30 31 32 33 34 35 36 37 38 39 40 41 42 43 44 45 46 47 48 49 50
674
ASUS43 KIND 252309
RWRIN

WEATHER ROUNDUP FOR INDIANA
NATIONAL WEATHER SERVICE INDIANAPOLIS IN
700 PM EDT SUN JUN 25 2017

NOTE: "FAIR" INDICATES FEW OR NO CLOUDS BELOW 12,000 FEET WITH NO
SIGNIFICANT WEATHER AND/OR OBSTRUCTIONS TO VISIBILITY.

* - STATION DOES NOT REPORT WEATHER SUCH AS PRECIPITATION OR FOG.

+ - STATION NOT QUALITY CONTROLLED BY THE NATIONAL WEATHER SERVICE.
    USE DATA WITH CAUTION...ESPECIALLY DEWPOINT AND RELATIVE
    HUMIDITY OBSERVATIONS.

INZ001>003-010>013-019-020-260000-
NORTHWEST INDIANA

CITY           SKY/WX    TMP DP  RH WIND       PRES   REMARKS
GARY /AIRPORT/ PTSUNNY   70  43  37 W20       30.08S
KNOX *+        CLOUDY    70  34  26 W9        30.07F
LA PORTE +     PTSUNNY   69  43  39 W9G22     30.08S
MICHIGAN CITY+ PTSUNNY   68  48  49 NW7       30.07S
MONTICELLO +   CLOUDY    70  45  40 W10G16    30.09S
VALPARAISO     MOSUNNY   72  46  39 W15       30.08S

$$

LMZ046-743>745-260000-
SOUTHERN LAKE MICHIGAN

STATION/POSITION TIME  TEMP    WIND        PRES    WAVE
                       AIR SEA DIR/SP/G            HT
                 (UTC) (F)     (DEG/KT/KT) (MB)    (FT)
BURNS HARBOR     2240   68     280/ 11/ 14 1018.3F
MICHIGAN CITY    2240   68     270/  9/ 10   N/A
5NW MICH CITY    2300   68 67  280/  6/  8   N/A     2

$$

INZ004-005-014>016-021>024-260000-
NORTH CENTRAL INDIANA

CITY           SKY/WX    TMP DP  RH WIND       PRES   REMARKS
GOSHEN         CLOUDY    68  43  40 W12       30.06F
LOGANSPORT +   PTSUNNY   70  45  40 W13       30.10S
PERU/GRISSOM   MOSUNNY   70  46  42 W13       30.07F
ROCHESTER +    MOSUNNY   72  41  33 W10G17    30.08F
SOUTH BEND     PTSUNNY   69  46  43 NW14      30.06F
WARSAW +       MOSUNNY   68  43  40 W13       30.07S

$$

INZ006>009-017-018-025>027-260000-
NORTHEAST INDIANA

CITY           SKY/WX    TMP DP  RH WIND       PRES   REMARKS
AUBURN +       MOSUNNY   70  43  37 W10       30.07S
FORT WAYNE     PTSUNNY   70  43  37 W14       30.07F
HUNTINGTON +   SUNNY     70  42  36 W13       30.08S
KENDALLVILLE + PTSUNNY   67  43  40 W7        30.07S

$$

INZ028-029-035-036-043>045-051>053-260000-
WEST CENTRAL INDIANA

CITY           SKY/WX    TMP DP  RH WIND       PRES   REMARKS
CRAWFORDSVL +  PTSUNNY   69  49  48 W7        30.11S
GREENCASTLE +  SUNNY     72  41  33 W7        30.12S
LAFAYETTE      PTSUNNY   71  47  42 W16G25    30.09F
TERRE HAUTE    PTSUNNY   75  45  34 W12       30.12S

$$

INZ030>032-037>040-046>048-054>057-064-065-260000-
CENTRAL INDIANA

CITY           SKY/WX    TMP DP  RH WIND       PRES   REMARKS
CP ATTERBURY + MOSUNNY   72  46  40 W8        30.12S
COLUMBUS       SUNNY     73  37  27 W9        30.12S
FRANKFORT +    SUNNY     74  48  40 NW14      30.12S
GREENWOOD *+   MOSUNNY   74  41  30 W16G23    30.11S
INDIANAPOLIS   MOSUNNY   74  45  35 W18G25    30.10F
-EAGLE CREEK   MOSUNNY   73  44  35 W15G22    30.10S
KOKOMO +       PTSUNNY   71  47  42 W14       30.10F
MARION +       CLOUDY    68  45  42 NW10      30.10F HAZE
MT COMFORT *+  PTSUNNY   73  46  38 W15       30.11S
SHELBYVILLE    MOSUNNY   76  45  33 W13       30.09F
ZIONSVILLE +   MOSUNNY   71  48  43 W12G18    30.11S

$$

INZ033-034-041-042-049-050-058-059-260000-
EAST CENTRAL INDIANA

CITY           SKY/WX    TMP DP  RH WIND       PRES   REMARKS
MUNCIE         MOSUNNY   72  47  40 W10       30.09F
RICHMOND +     MOSUNNY   70  45  40 W14G20    30.11F

$$

INZ060-061-067>069-081>083-085>088-260000-
SOUTHWEST INDIANA

CITY           SKY/WX    TMP DP  RH WIND       PRES   REMARKS
EVANSVILLE     MOSUNNY   81  47  30 NW12      30.13F
HUNTINGBURG *+ SUNNY     79  48  33 W18       30.12F
WASHINGTON +   MOSUNNY   77  44  30 NW12      30.12S

$$

INZ062-063-066-070>080-084-089>092-260000-
SOUTH CENTRAL AND SOUTHEAST INDIANA

CITY           SKY/WX    TMP DP  RH WIND       PRES   REMARKS
BEDFORD +      MOSUNNY   77  43  29 W5G16     30.11F
BLOOMINGTON    MOSUNNY   76  45  33 W8        30.11F
MADISON *+     SUNNY     77  37  24 W9G18     30.12F
NORTH VERNON + SUNNY     73  48  40 W9        30.11F
SEYMOUR +      MOSUNNY  N/A N/A N/A W12       30.10F

$$





USA.gov is the U.S. government's official web portal to all federal, state and local government web resources and services.